Regional Weather Roundup
Issued by NWS

Home | Current Version | Previous Version | Text Only | Print | Product List | Glossary On
Versions: 1 2 3 4 5 6 7 8 9 10 11 12 13 14 15 16 17 18 19 20 21 22 23 24 25 26 27 28 29 30 31 32 33 34 35 36 37 38 39 40 41 42 43 44 45 46 47 48 49 50
000
ASUS43 KMPX 151210
RWRMN
WEATHER ROUNDUP FOR MINNESOTA
NATIONAL WEATHER SERVICE TWIN CITIES/CHANHASSEN MN
600 AM CST FRI DEC 15 2017


NOTE: "FAIR" INDICATES FEW OR NO CLOUDS BELOW 12,000 FEET WITH NO
SIGNIFICANT WEATHER AND/OR OBSTRUCTIONS TO VISIBILITY. N/A MEANS
CURRENT SKY AND/OR WEATHER CONDITIONS ARE NOT AVAILABLE.

MNZ060>063-068>070-151300-
   Twin Cities Metro

CITY           SKY/WX    TMP DP  RH WIND       PRES   REMARKS
TWIN CITIES    CLOUDY    24  20  84 NW5       29.91S WCI  18
6HR MIN TEMP:  23; 6HR MAX TEMP:  24; 6HR PCP: TRACE;

ST PAUL        CLOUDY    24  19  81 NW7       29.93S WCI  16
CRYSTAL        CLOUDY    23  17  78 CALM      29.89F
BLAINE         CLOUDY    23  18  80 N5        29.90S WCI  17
LAKEVILLE        N/A     21  19  93 CALM      29.90S
EDEN PRAIRIE   CLOUDY    24  20  84 CALM      29.90S
6HR MIN TEMP:  23; 6HR MAX TEMP:  24; 6HR PCP: TRACE;

SOUTH ST PAUL  CLOUDY    25  19  80 CALM      29.91S
LAKE ELMO      CLOUDY    23  19  86 NW7       29.91S WCI  15
$$
MNZ001>005-007-008-013>017-022>024-027-028-151300-
   Northwest Minnesota

CITY           SKY/WX    TMP DP  RH WIND       PRES   REMARKS
BEMIDJI        CLOUDY     8   4  84 CALM      29.86F
HALLOCK        CLOUDY    12  10  92 CALM      29.90S
ROSEAU         CLOUDY     9   3  78 CALM      29.88F
WARROAD        CLOUDY     9   3  78 CALM      29.88F
THIEF RVR FALL CLOUDY     7   4  87 CALM      29.89F
CROOKSTON      CLOUDY    16  12  86 CALM      29.91F
FOSSTON        CLOUDY     3   1  92 CALM      29.88F
DETROIT LAKES  CLOUDY    18  14  86 CALM      29.88S
MOORHEAD       CLOUDY    19  16  86 CALM      29.91F
PARK RAPIDS    CLOUDY     7   4  87 NW5       29.85F WCI  -2
MAHNOMEN       PTSUNNY   10   8  91 CALM      29.87F
$$
MNZ006-009>011-018-025>026-151300-
   North Central Minnesota

CITY           SKY/WX    TMP DP  RH WIND       PRES   REMARKS
BAUDETTE       CLOUDY     8   3  80 N5        29.86F WCI   0
FLAG ISLAND    CLOUDY     7   1  78 NE5       29.87F WCI  -2
INTL FALLS     CLOUDY     7   1  76 NW7       29.86F WCI  -5
6HR MIN TEMP:   7; 6HR MAX TEMP:  10; 6HR PCP: TRACE;

WASKISH        CLOUDY     9   3  78 CALM      29.87F
BIG FORK       FLURRIES   9   3  78 CALM      29.86R
LONGVILLE      FLURRIES  12   9  85 N3        29.86F
GRAND RAPIDS   FLURRIES  10   5  80 NW8       29.88S WCI  -2
CRANE LAKE     CLOUDY     9   3  78 CALM      29.87S
ORR            CLOUDY     7   1  78 NW6       29.82S WCI  -3
COOK           CLOUDY     9   3  78 NW5       29.84S WCI   0
WALKER         LGT SNOW  10   6  83 N7        29.86S WCI  -1
$$
MNZ012-019>021-037-151300-
   Northeast Minnesota

CITY           SKY/WX    TMP DP  RH WIND       PRES   REMARKS
DULUTH         FLURRIES  11   7  84 NW9       29.82F WCI  -2
6HR MIN TEMP:  11; 6HR MAX TEMP:  12; 6HR PCP: TRACE;

ELY            LGT SNOW   9   3  78 NW6       29.80F WCI  -1
HIBBING        CLOUDY     8   3  80 NW10      29.84F WCI  -6
EVELETH        FLURRIES  10   3  75 NW8       29.84F WCI  -3
DULUTH HARBOR  FLURRIES  16  10  79 NW7       29.90S WCI   6
TWO HARBORS    FLURRIES  16   9  73 W6        29.81F WCI   7
GRAND MARAIS     N/A     13   4  67 NW10G23   29.81R WCI   0
G MARAIS ARPRT FLURRIES   7   0  72 NW6       29.72F WCI  -3
$$
MNZ029>031-032-039>041-046>048-054>057-064-151300-
   West Central Minnesota

CITY           SKY/WX    TMP DP  RH WIND       PRES   REMARKS
FERGUS FALLS   CLOUDY    19  16  86 CALM      29.92F
WHEATON        CLOUDY    23  21  93 NE3       29.92F
MORRIS         CLOUDY    25  21  86 NE9       29.88F WCI  15
ALEXANDRIA     CLOUDY    21  16  81 N5        29.87F WCI  15
ELBOW LAKE     CLOUDY    21  18  88 CALM      29.89F
WADENA         CLOUDY    12  10  92 NW5       29.87S WCI   4
GLENWOOD       CLOUDY    21  18  86 N6        29.88F WCI  14
APPLETON         N/A     30  27  86 N8        29.89S WCI  23
BENSON         CLOUDY    27  25  93 E5        29.91S WCI  21
ORTONVILLE     CLOUDY    27  23  86 NE8       29.89F WCI  18
MADISON        CLOUDY    34  28  80 W5        29.89F WCI  30
WILLMAR        CLOUDY    28  28 100 N6        29.89S WCI  22
$$
MNZ033>034-036-042>043-049>051-058-059-151300-
   Central Minnesota

CITY           SKY/WX    TMP DP  RH WIND       PRES   REMARKS
ST CLOUD       MOCLDY    17  15  92 CALM      29.89F
6HR MIN TEMP:  17; 6HR MAX TEMP:  22; 6HR PCP: TRACE;

SAUK CENTRE    CLOUDY    21  17  83 N6        29.88F WCI  13
PAYNESVILLE    CLOUDY    24  22  96 CALM      29.89F
AITKIN         CLOUDY    12   9  85 N5        29.86S WCI   4
PINE RIVER     FLURRIES  12   9  85 N5        29.89F WCI   4
BRAINERD       CLOUDY    17  10  74 NW5       29.87F WCI  10
STAPLES        CLOUDY    10   7  85 CALM      29.86F
LONG PRAIRIE   CLOUDY    19  14  79 NW6       29.88F WCI  11
LITTLE FALLS   CLOUDY    19  10  68 CALM      29.89F
LITCHFIELD     CLOUDY    27  25  93 N6        29.89F WCI  20
BUFFALO        CLOUDY    24  20  87 CALM      29.90F
MAPLE LAKE     CLOUDY    24  22  93 CALM      29.90S
HUTCHINSON     FLURRIES  27  25  95 CALM      29.90S
$$
MNZ037-044-045-052-053-151300-
   East Central Minnesota

CITY           SKY/WX    TMP DP  RH WIND       PRES   REMARKS
PRINCETON      CLOUDY    19  16  86 CALM      29.89F
MORA           CLOUDY    16  10  79 N5        29.91S WCI   9
CAMBRIDGE      CLOUDY    19  10  68 CALM      29.90F
RUSH CITY      FLURRIES  16  10  77 NW6       29.91S WCI   7
MOOSE LAKE     CLOUDY    14   7  73 NW5       29.86F WCI   6
HINCKLEY       CLOUDY    18  10  73 NW5       29.89F WCI  11
CLOQUET        CLOUDY    12   5  73 W7        29.84F WCI   2
MCGREGOR       CLOUDY    16  10  79 NW5       29.87F WCI   9
$$
MNZ071>073-080-081-089-090-097-098-151300-
   Southwest Minnesota

CITY           SKY/WX    TMP DP  RH WIND       PRES   REMARKS
MONTEVIDEO     CLOUDY    30  28  93 NW3       29.89S
GRANITE FALLS  CLOUDY    32  29  88 W6        29.91S WCI  26
CANBY          CLOUDY    32  29  86 SW7       29.90F WCI  26
MARSHALL       CLOUDY    32  27  81 W10       29.90F WCI  24
REDWOOD FALLS  CLOUDY    31  28  89 W9        29.89S WCI  23
OLIVIA         CLOUDY    30  28  93 W5        29.89S WCI  25
PIPESTONE      CLOUDY    28  27  93 W9        29.89S WCI  20
WINDOM           N/A     28  18  64 W9        29.90S WCI  20
WORTHINGTON    CLOUDY    29  26  89 W14       29.92F WCI  18
JACKSON        CLOUDY    30  27  86 MISG      29.91S
SLAYTON        CLOUDY    29  27  90 W8        29.90F WCI  21
$$
MNZ065>067-074>077-082>085-091>093-151300-
   South Central Minnesota

CITY           SKY/WX    TMP DP  RH WIND       PRES   REMARKS
MANKATO        LGT SNOW  27  25  92 W6        29.91S FOG     WCI  20
NEW ULM        CLOUDY    28  25  86 W8        29.89S WCI  20
ST JAMES       CLOUDY    30  27  86 W9        29.91S WCI  22
FAIRMONT       FLURRIES  29  25  85 W12       29.92R WCI  19
GLENCOE        LGT SNOW  26  26 100 CALM      29.90R
FARIBAULT      FLURRIES  25  21  86 CALM      29.90S
OWATONNA       CLOUDY    25  23  93 SW7       29.89S WCI  17
WASECA         MIX PCPN  27  23  86 SW6       29.91S WCI  20
ALBERT LEA     CLOUDY    27  21  80 SW6       29.90S WCI  20
$$
MNZ078>079-086>088-094>096-151300-
   Southeast Minnesota

CITY           SKY/WX    TMP DP  RH WIND       PRES   REMARKS
ROCHESTER      CLOUDY    22  20  92 W6        29.89F WCI  14
6HR MIN TEMP:  22; 6HR MAX TEMP:  22; 6HR PCP: TRACE;

RED WING       FLURRIES  23  18  80 W5        29.91R WCI  17
STANTON        CLOUDY    25  21  84 CALM      29.89S
DODGE CENTER   CLOUDY    21  21 100 SW7       29.89S WCI  13
WINONA         FLURRIES  25  19  80 W9        29.93S WCI  15
AUSTIN         CLOUDY    25  21  86 W3        29.90S
PRESTON        CLOUDY    23  17  80 W7        29.90S WCI  14
$$
ABBREVIATIONS USED IN REMARKS
   TC - TEMPERATURES IN CELSIUS
  WCI - WIND CHILL INDEX
   HX - HEAT INDEX
  VSB - VISIBILITY
$$



USA.gov is the U.S. government's official web portal to all federal, state and local government web resources and services.